Location: Liscomb Game Sanctuary
(45.1633°N, 62.5575°W)
Time: 18:08:07
(UTC-03:00)

Amateur Radio Satellites - All Passes

Search period start: 22 October 2017 17:38
Search period end: 23 October 2017 17:38
Location: Liscomb Game Sanctuary, 45.1633°N, 62.5575°W

Satellite Date Start Highest point End Downlink Frequencies (MHz)
Time Altitude Azimuth
XW-2B 22 Oct 17:47:49 17:51:11 31° 70° (ENE) 17:54:33 145.730 - 145.750
PCSat 22 Oct 17:52:19 17:57:38 57° 244° (WSW) 18:02:54 145.827
ITUPSAT 1 22 Oct 17:59:21 18:02:57 21° 298° (WNW) 18:06:31 437.325
XW-2C 22 Oct 18:10:47 18:14:31 59° 75° (ENE) 18:18:15 145.795 - 145.815
CUBEBUG 2 22 Oct 18:11:00 18:12:27 11° 57° (ENE) 18:13:53 437.445
HO-68 22 Oct 18:11:43 18:17:59 34° 60° (ENE) 18:24:17 435.675
DOVE 4 22 Oct 18:13:44 18:17:31 31° 265° (W) 18:21:28 437.250
BEESAT 22 Oct 18:13:45 18:16:38 16° 301° (WNW) 18:19:31 436.000
KKS-1 22 Oct 18:16:01 18:20:28 59° 101° (E) 18:24:54 437.445
CUTE 1.7 + AOD 2 22 Oct 18:19:37 18:22:32 18° 64° (ENE) 18:25:27 437.475
SEEDS 22 Oct 18:23:11 18:25:01 13° 61° (ENE) 18:26:50 437.485
STARS 22 Oct 18:41:53 18:46:10 45° 99° (E) 18:50:25 437.465
UWE-3 22 Oct 18:42:57 18:45:15 14° 60° (ENE) 18:47:33 435.000/436.395/437.385
KAITUO 1B 22 Oct 18:47:24 18:51:06 67° 258° (WSW) 18:54:49 145.475/437.950
BEESAT 3 22 Oct 18:53:38 18:55:19 12° 32° (NNE) 18:57:00 437.485
XW-2F 22 Oct 18:53:38 18:57:15 44° 261° (W) 19:00:52 145.980 - 146.000
NUDT-PHONESAT 22 Oct 18:57:31 19:01:09 52° 260° (W) 19:04:47 437.300
CUBESAT XI-V 22 Oct 19:02:29 19:05:22 17° 299° (WNW) 19:08:16 437.345
LilacSat-2 22 Oct 19:04:30 19:07:52 29° 264° (W) 19:11:14 437.200
XW-2D 22 Oct 19:08:30 19:11:46 27° 264° (W) 19:15:03 145.860 - 145.880
CUTE-I 22 Oct 19:12:39 19:17:43 44° 262° (W) 19:22:50 437.470
STRAND 1 22 Oct 19:15:37 19:17:13 11° 87° (E) 19:18:50 437.568
XW-2B 22 Oct 19:22:32 19:25:24 20° 266° (W) 19:28:17 145.730 - 145.750
AO-73 22 Oct 19:26:34 19:29:35 18° 63° (ENE) 19:32:34 145.935
CUBEBUG 2 22 Oct 19:43:32 19:48:13 81° 77° (ENE) 19:53:01 437.445
XW-2C 22 Oct 19:47:59 19:49:04 11° 271° (W) 19:50:08 145.795 - 145.815
ZACube-1 22 Oct 19:48:57 19:52:59 31° 68° (ENE) 19:57:00 437.345
AO-85 22 Oct 19:50:35 19:52:48 13° 32° (NNE) 19:55:05 145.980
XW-2A 22 Oct 19:52:02 19:55:24 62° 74° (ENE) 19:58:47 145.665 - 145.685
KKS-1 22 Oct 19:53:43 19:56:34 17° 299° (WNW) 19:59:24 437.445
CUTE 1.7 + AOD 2 22 Oct 19:53:59 19:58:02 45° 261° (W) 20:02:06 437.475
SEEDS 22 Oct 19:55:59 20:00:08 70° 259° (WSW) 20:04:18 437.485
YUBILEINY 22 Oct 19:56:10 20:04:19 40° 70° (ENE) 20:12:26 435.215
HO-68 22 Oct 19:58:26 20:05:25 54° 259° (W) 20:12:28 435.675
AAUSAT CUBESAT 2 22 Oct 20:12:09 20:16:15 79° 76° (ENE) 20:20:22 437.432
FO-29 22 Oct 20:12:10 20:14:23 11° 84° (E) 20:16:39 435.910
O/OREOS (USA 219) 22 Oct 20:15:11 20:19:11 31° 105° (ESE) 20:23:15 437.305
UWE-3 22 Oct 20:16:22 20:21:02 81° 257° (WSW) 20:25:44 435.000/436.395/437.385
STARS 22 Oct 20:18:55 20:22:12 20° 297° (WNW) 20:25:27 437.465
BEESAT 2 22 Oct 20:19:21 20:22:32 21° 41° (NE) 20:25:41 435.950
Oscar 11 22 Oct 20:21:13 20:25:14 39° 70° (ENE) 20:29:16 .
BEESAT 3 22 Oct 20:29:40 20:33:39 67° 52° (NE) 20:37:31 437.485
STRAND 1 22 Oct 20:51:57 20:57:08 87° 100° (E) 21:02:18 437.568
AO-73 22 Oct 21:00:52 21:05:22 57° 260° (W) 21:09:52 145.935
DELFI C3 22 Oct 21:16:43 21:20:12 32° 70° (ENE) 21:23:43 145.870
EO-88 22 Oct 21:23:13 21:25:54 20° 67° (ENE) 21:28:34 145.990 - 145.960
CUBEBUG 2 22 Oct 21:23:33 21:25:26 12° 273° (W) 21:27:19 437.445
ZACube-1 22 Oct 21:25:10 21:29:12 30° 265° (W) 21:33:14 437.345
AO-85 22 Oct 21:29:34 21:34:02 61° 52° (NE) 21:38:51 145.980
Max Valier Satellite 22 Oct 21:38:04 21:41:34 39° 72° (ENE) 21:45:04 145.860
YUBILEINY 22 Oct 21:52:57 22:01:20 51° 271° (W) 22:09:44 435.215
FO-29 22 Oct 21:53:32 22:00:28 63° 101° (E) 22:08:04 435.910
O/OREOS (USA 219) 22 Oct 21:54:29 21:58:34 31° 303° (WNW) 22:02:41 437.305
BEESAT 2 22 Oct 21:56:35 22:00:31 51° 240° (WSW) 22:04:24 435.950
Oscar 11 22 Oct 21:58:12 22:01:30 21° 267° (W) 22:04:50 .
BEESAT 3 22 Oct 22:08:53 22:10:38 13° 251° (WSW) 22:12:22 437.485
STRAND 1 22 Oct 22:32:49 22:35:36 15° 303° (WNW) 22:38:23 437.568
RS-15 22 Oct 22:43:16 22:49:27 16° 94° (E) 22:55:37 29.354- 29.394
ESTCUBE 1 22 Oct 22:47:12 22:50:43 23° 65° (ENE) 22:54:15 437.505/2401.250
DELFI C3 22 Oct 22:52:02 22:55:01 21° 267° (W) 22:58:01 145.870
EO-88 22 Oct 22:56:05 22:59:21 30° 263° (W) 23:02:38 145.990 - 145.960
UNISAT 6 22 Oct 22:56:19 23:00:55 61° 101° (E) 23:05:21 437.425
TIGRISAT 22 Oct 23:10:21 23:14:59 78° 103° (ESE) 23:19:28 435.000
AO-85 22 Oct 23:10:50 23:14:08 19° 247° (WSW) 23:17:35 145.980
PRISM 22 Oct 23:12:31 23:16:22 36° 98° (E) 23:20:13 437.425
Max Valier Satellite 22 Oct 23:13:15 23:15:34 16° 268° (W) 23:17:53 145.860
LO-87 22 Oct 23:36:22 23:39:57 80° 256° (WSW) 23:43:37 145.935 - 145.965
FO-29 22 Oct 23:39:18 23:45:08 31° 298° (WNW) 23:51:28 435.910
QB50P2 22 Oct 23:48:33 23:49:20 10° 88° (E) 23:50:06 145.880/145.840
VELOX 1 23 Oct 00:01:15 00:04:45 24° 65° (ENE) 00:08:17 145.980
ESTCUBE 1 23 Oct 00:23:04 00:27:17 40° 262° (W) 00:31:32 437.505/2401.250
SPROUT 23 Oct 00:30:27 00:34:41 64° 74° (ENE) 00:38:58 437.525
AIST 2D 23 Oct 00:30:32 00:34:00 82° 100° (E) 00:37:28 435.315
UNISAT 6 23 Oct 00:34:13 00:37:07 17° 299° (WNW) 00:39:57 437.425
RS-15 23 Oct 00:47:19 00:59:22 65° 116° (ESE) 01:11:24 29.354- 29.394
PRISM 23 Oct 00:48:16 00:51:26 22° 295° (WNW) 00:54:36 437.425
TIGRISAT 23 Oct 00:48:46 00:51:00 14° 301° (WNW) 00:53:13 435.000
EO-79 23 Oct 00:55:22 00:59:32 50° 100° (E) 01:03:39 145.935-145.965
DX 1 23 Oct 00:58:41 01:02:10 24° 65° (ENE) 01:05:42 434.975-435.025
POLYITAN 1 23 Oct 01:00:53 01:05:06 57° 101° (E) 01:09:16 437.675
50 SAT 23 Oct 01:12:03 01:14:58 31° 70° (ENE) 01:17:55 437.505
UKube-1 23 Oct 01:16:52 01:20:19 24° 65° (ENE) 01:23:48 .
QB50P2 23 Oct 01:21:22 01:25:39 77° 285° (WNW) 01:29:53 145.880/145.840
NANOSAT C BR1 23 Oct 01:21:40 01:25:57 86° 104° (ESE) 01:30:10 145.865
BUGSAT 1 23 Oct 01:27:57 01:31:22 23° 94° (E) 01:34:44 437.445
DUCHIFAT 1 23 Oct 01:30:48 01:35:05 86° 283° (WNW) 01:39:17 145.980
VELOX 1 23 Oct 01:36:57 01:41:00 36° 262° (W) 01:45:05 145.980
Gurwin Techsat 1B 23 Oct 01:54:09 01:57:42 18° 90° (E) 02:01:12 435.225
ITUPSAT 1 23 Oct 01:55:58 01:56:59 11° 55° (NE) 01:58:01 437.325
M-CUBED/EXP-1 PRIME 23 Oct 02:03:54 02:05:29 12° 98° (E) 02:07:06 437.505
BEESAT 23 Oct 02:07:55 02:10:23 14° 58° (ENE) 02:12:51 436.000
SPROUT 23 Oct 02:09:04 02:11:00 13° 271° (W) 02:12:58 437.525
EO-79 23 Oct 02:32:06 02:34:55 17° 297° (WNW) 02:37:43 145.935-145.965
MOZHAYETS 4 23 Oct 02:33:58 02:37:41 24° 65° (ENE) 02:41:23
DX 1 23 Oct 02:34:14 02:38:11 35° 262° (W) 02:42:11 434.975-435.025
POLYITAN 1 23 Oct 02:37:53 02:40:25 16° 298° (WNW) 02:42:57 437.675
Oscar 19 23 Oct 02:38:35 02:43:40 61° 101° (ESE) 02:48:44 437.125/150
50 SAT 23 Oct 02:45:27 02:47:22 15° 267° (W) 02:49:18 437.505
UKube-1 23 Oct 02:52:15 02:56:10 35° 262° (W) 03:00:08 .
NO-84 23 Oct 02:53:34 02:57:43 49° 136° (SE) 03:01:51 435.350 FM
NANOSAT C BR1 23 Oct 02:59:50 03:00:58 11° 301° (WNW) 03:02:05 145.865
RS-15 23 Oct 03:00:33 03:12:28 51° 322° (NW) 03:24:17 29.354- 29.394
BUGSAT 1 23 Oct 03:02:57 03:06:47 33° 291° (WNW) 03:10:32 437.445
AO-7 23 Oct 03:06:03 03:10:39 16° 87° (E) 03:15:15 .
ITUPSAT 1 23 Oct 03:29:09 03:33:56 74° 74° (ENE) 03:38:46 437.325
Gurwin Techsat 1B 23 Oct 03:32:49 03:38:07 66° 288° (WNW) 03:43:23 435.225
M-CUBED/EXP-1 PRIME 23 Oct 03:36:36 03:40:07 54° 292° (WNW) 03:43:53 437.505
BEESAT 23 Oct 03:42:42 03:47:29 82° 256° (WSW) 03:52:19 436.000
MOZHAYETS 4 23 Oct 04:10:16 04:14:37 40° 262° (W) 04:18:59
Oscar 19 23 Oct 04:18:53 04:22:32 20° 299° (WNW) 04:26:11 437.125/150
CUBESAT XI-V 23 Oct 04:28:48 04:33:24 75° 74° (ENE) 04:38:01 437.345
NO-84 23 Oct 04:31:12 04:35:15 39° 334° (NNW) 04:39:13 435.350 FM
O/OREOS (USA 219) 23 Oct 04:44:49 04:47:01 13° 46° (NE) 04:49:13 437.305
AO-7 23 Oct 04:56:25 05:04:46 76° 107° (ESE) 05:13:05 .
ITAMSAT 1 23 Oct 04:56:39 05:01:54 73° 103° (ESE) 05:07:08 435.822/435.867
ITUPSAT 1 23 Oct 05:09:55 05:12:17 14° 271° (W) 05:14:41 437.325
KKS-1 23 Oct 05:15:38 05:20:03 70° 73° (ENE) 05:24:30 437.445
Gurwin Techsat 1B 23 Oct 05:15:44 05:17:03 11° 307° (NW) 05:18:22 435.225
RS-15 23 Oct 05:18:21 05:28:44 30° 354° (N) 05:38:51 29.354- 29.394
STARS 23 Oct 05:40:02 05:44:17 52° 71° (ENE) 05:48:36 437.465
DOVE 4 23 Oct 06:08:46 06:13:45 57° 100° (E) 06:18:54 437.250
CUBESAT XI-V 23 Oct 06:09:23 06:11:18 12° 272° (W) 06:13:13 437.345
NO-84 23 Oct 06:10:17 06:13:32 21° 355° (N) 06:16:40 435.350 FM
O/OREOS (USA 219) 23 Oct 06:22:33 06:27:11 85° 64° (ENE) 06:31:46 437.305
XW-2F 23 Oct 06:24:23 06:26:38 15° 92° (E) 06:28:52 145.980 - 146.000
SO-50 23 Oct 06:24:33 06:28:40 38° 117° (ESE) 06:32:50 436.795
NUDT-PHONESAT 23 Oct 06:27:09 06:28:35 12° 90° (E) 06:30:01 437.300
STRAND 1 23 Oct 06:32:17 06:36:10 22° 62° (ENE) 06:40:04 437.568
LilacSat-2 23 Oct 06:35:26 06:38:30 23° 94° (E) 06:41:34 437.200
ITAMSAT 1 23 Oct 06:37:22 06:40:47 18° 302° (WNW) 06:44:11 435.822/435.867
XW-2D 23 Oct 06:38:34 06:41:40 24° 95° (E) 06:44:46 145.860 - 145.880
AO-7 23 Oct 06:50:01 06:56:49 30° 307° (NW) 07:03:38 .
XW-2B 23 Oct 06:51:54 06:55:19 33° 97° (E) 06:58:43 145.730 - 145.750
KKS-1 23 Oct 06:55:11 06:57:05 12° 271° (W) 06:59:00 437.445
PCSat 23 Oct 06:55:49 06:58:15 13° 103° (ESE) 07:00:42 145.827
XW-2C 23 Oct 07:15:08 07:18:52 66° 101° (E) 07:22:34 145.795 - 145.815
STARS 23 Oct 07:18:07 07:20:56 17° 269° (W) 07:23:46 437.465
HO-68 23 Oct 07:24:07 07:30:09 28° 93° (E) 07:36:07 435.675
CUTE-I 23 Oct 07:27:06 07:32:28 63° 102° (ESE) 07:37:47 437.470
CUBEBUG 2 23 Oct 07:33:48 07:36:31 15° 89° (E) 07:39:11 437.445
RS-15 23 Oct 07:34:27 07:45:39 40° 28° (NNE) 07:56:18 29.354- 29.394
CUTE 1.7 + AOD 2 23 Oct 07:36:50 07:40:20 25° 94° (E) 07:43:50 437.475
SEEDS 23 Oct 07:38:32 07:41:13 17° 91° (E) 07:43:54 437.485
DOVE 4 23 Oct 07:47:20 07:51:03 21° 296° (WNW) 07:54:51 437.250
NO-84 23 Oct 07:48:29 07:51:58 26° 16° (NNE) 07:55:16 435.350 FM
KAITUO 1B 23 Oct 07:50:07 07:53:46 62° 285° (WNW) 07:57:24 145.475/437.950
AAUSAT CUBESAT 2 23 Oct 07:54:37 07:55:26 10° 88° (E) 07:56:16 437.432
XW-2F 23 Oct 07:57:26 08:00:56 40° 288° (WNW) 08:04:25 145.980 - 146.000
NUDT-PHONESAT 23 Oct 07:59:11 08:02:44 49° 287° (WNW) 08:06:16 437.300
O/OREOS (USA 219) 23 Oct 08:04:52 08:05:50 11° 264° (W) 08:06:48 437.305
UWE-3 23 Oct 08:05:03 08:08:08 18° 91° (E) 08:11:10 435.000/436.395/437.385
SO-50 23 Oct 08:05:11 08:09:11 31° 317° (NW) 08:13:14 436.795
LilacSat-2 23 Oct 08:09:34 08:12:45 26° 291° (WNW) 08:15:55 437.200
FO-29 23 Oct 08:09:40 08:14:13 29° 62° (ENE) 08:19:09 435.910
STRAND 1 23 Oct 08:09:56 08:14:58 55° 260° (W) 08:20:02 437.568
XW-2D 23 Oct 08:12:41 08:15:47 25° 292° (WNW) 08:18:53 145.860 - 145.880
XW-2B 23 Oct 08:26:35 08:29:17 19° 294° (WNW) 08:31:58 145.730 - 145.750
PCSat 23 Oct 08:35:23 08:40:49 87° 121° (ESE) 08:46:17 145.827
TIGRISAT 23 Oct 08:37:22 08:38:58 12° 58° (ENE) 08:40:35 435.000
XW-2A 23 Oct 08:44:05 08:47:21 47° 100° (E) 08:50:34 145.665 - 145.685
nSIGHT-1 23 Oct 08:45:35 08:47:31 15° 134° (SE) 08:49:26 .
AO-73 23 Oct 08:47:21 08:50:49 23° 93° (E) 08:54:13 145.935
XW-2C 23 Oct 08:51:29 08:52:31 11° 298° (WNW) 08:53:31 145.795 - 145.815
YUBILEINY 23 Oct 08:59:59 09:07:53 41° 86° (E) 09:15:50 435.215
CUTE-I 23 Oct 09:08:07 09:12:02 21° 300° (WNW) 09:15:56 437.470
CUBEBUG 2 23 Oct 09:08:59 09:13:33 59° 287° (WNW) 09:17:57 437.445
ZACube-1 23 Oct 09:10:52 09:15:05 46° 98° (E) 09:19:11 437.345
HO-68 23 Oct 09:11:13 09:18:20 63° 292° (WNW) 09:25:24 435.675
CUTE 1.7 + AOD 2 23 Oct 09:12:28 09:16:11 31° 291° (WNW) 09:19:52 437.475
SEEDS 23 Oct 09:13:09 09:17:09 46° 288° (WNW) 09:21:08 437.485
ISS 23 Oct 09:25:22 09:28:15 29° 140° (SE) 09:31:08 437.550
NO-84 23 Oct 09:25:51 09:29:51 86° 36° (NE) 09:33:30 435.350 FM
AAUSAT CUBESAT 2 23 Oct 09:27:15 09:31:22 73° 285° (WNW) 09:35:30 437.432
UWE-3 23 Oct 09:40:33 09:44:52 47° 289° (WNW) 09:49:03 435.000/436.395/437.385
Oscar 11 23 Oct 09:41:54 09:46:10 61° 101° (E) 09:50:25 .
RS-15 23 Oct 09:47:40 09:59:43 88° 237° (WSW) 10:11:04 29.354- 29.394
FO-29 23 Oct 09:54:10 09:59:08 41° 263° (W) 10:04:35 435.910
UNISAT 6 23 Oct 09:56:21 10:01:00 67° 73° (ENE) 10:05:41 437.425
PRISM 23 Oct 10:03:31 10:07:10 34° 69° (ENE) 10:10:52 437.425
TIGRISAT 23 Oct 10:10:12 10:14:52 84° 77° (ENE) 10:19:37 435.000
XW-2A 23 Oct 10:18:31 10:19:38 11° 297° (WNW) 10:20:45 145.665 - 145.685
nSIGHT-1 23 Oct 10:20:12 10:23:25 81° 334° (NNW) 10:26:37 .
PCSat 23 Oct 10:20:56 10:24:56 20° 322° (NW) 10:28:57 145.827
EO-88 23 Oct 10:22:48 10:25:22 18° 93° (E) 10:27:55 145.990 - 145.960
AO-73 23 Oct 10:23:12 10:27:08 34° 291° (WNW) 10:30:58 145.935
DELFI C3 23 Oct 10:25:32 10:29:17 39° 98° (E) 10:33:01 145.870
Max Valier Satellite 23 Oct 10:39:22 10:42:51 39° 98° (E) 10:46:17 145.860
QB50P2 23 Oct 10:42:53 10:44:26 12° 59° (ENE) 10:45:59 145.880/145.840
ZACube-1 23 Oct 10:47:57 10:51:01 19° 297° (WNW) 10:54:02 437.345
DUCHIFAT 1 23 Oct 10:52:31 10:53:11 10° 58° (ENE) 10:53:52 145.980
YUBILEINY 23 Oct 10:56:14 11:04:32 48° 287° (WNW) 11:12:57 435.215
HO-68 23 Oct 11:01:02 11:04:41 15° 313° (NW) 11:08:21 435.675
ISS 23 Oct 11:01:26 11:04:37 48° 338° (NNW) 11:07:48 437.550
NO-84 23 Oct 11:04:44 11:06:36 13° 236° (SW) 11:08:25 435.350 FM
AIST 2D 23 Oct 11:06:22 11:09:36 37° 72° (ENE) 11:12:51 435.315
Oscar 11 23 Oct 11:19:22 11:21:49 15° 298° (WNW) 11:24:16 .
UNISAT 6 23 Oct 11:35:36 11:38:10 14° 271° (W) 11:40:43 437.425
PRISM 23 Oct 11:39:23 11:42:31 21° 266° (W) 11:45:41 437.425
EO-79 23 Oct 11:49:14 11:53:20 48° 71° (ENE) 11:57:29 145.935-145.965
BEESAT 2 23 Oct 11:50:32 11:52:57 16° 111° (ESE) 11:55:25 435.950
TIGRISAT 23 Oct 11:50:42 11:52:10 11° 273° (W) 11:53:39 435.000
POLYITAN 1 23 Oct 11:54:50 11:59:01 55° 73° (ENE) 12:03:15 437.675
EO-88 23 Oct 11:55:50 11:59:05 31° 290° (WNW) 12:02:19 145.990 - 145.960
nSIGHT-1 23 Oct 11:57:12 12:00:01 27° 350° (N) 12:02:49 .
BEESAT 3 23 Oct 11:57:38 12:01:33 59° 121° (ESE) 12:05:32 437.485
DELFI C3 23 Oct 12:00:58 12:03:45 19° 295° (WNW) 12:06:33 145.870
RS-15 23 Oct 12:01:44 12:10:23 25° 260° (W) 12:18:44 29.354- 29.394
ESTCUBE 1 23 Oct 12:13:08 12:17:15 35° 97° (E) 12:21:21 437.505/2401.250
Max Valier Satellite 23 Oct 12:14:05 12:16:21 16° 295° (WNW) 12:18:37 145.860
NANOSAT C BR1 23 Oct 12:15:03 12:19:18 81° 74° (ENE) 12:23:36 145.865
QB50P2 23 Oct 12:15:17 12:19:34 81° 255° (WSW) 12:23:53 145.880/145.840
BUGSAT 1 23 Oct 12:19:28 12:22:44 22° 65° (ENE) 12:26:03 437.445
Oscar 19 23 Oct 12:20:42 12:23:50 17° 58° (ENE) 12:26:59 437.125/150
DUCHIFAT 1 23 Oct 12:23:53 12:28:08 88° 71° (ENE) 12:32:25 145.980
LO-87 23 Oct 12:34:18 12:37:57 85° 283° (WNW) 12:41:33 145.935 - 145.965
ISS 23 Oct 12:38:49 12:41:36 25° 358° (N) 12:44:22 437.550
AIST 2D 23 Oct 12:40:58 12:42:56 14° 268° (W) 12:44:56 435.315
M-CUBED/EXP-1 PRIME 23 Oct 12:51:18 12:53:44 19° 61° (ENE) 12:56:09 437.505
YUBILEINY 23 Oct 13:02:53 13:04:05 10° 313° (NW) 13:05:18 435.215
SO-50 23 Oct 13:14:03 13:16:33 14° 30° (NNE) 13:19:04 436.795
Gurwin Techsat 1B 23 Oct 13:16:46 13:21:33 35° 66° (ENE) 13:26:19 435.225
VELOX 1 23 Oct 13:24:25 13:28:29 34° 97° (E) 13:32:32 145.980
AO-85 23 Oct 13:26:13 13:30:07 89° 316° (NW) 13:34:08 145.980
BEESAT 2 23 Oct 13:26:17 13:30:15 57° 309° (NW) 13:34:17 435.950
EO-79 23 Oct 13:26:32 13:29:21 17° 268° (W) 13:32:11 145.935-145.965
POLYITAN 1 23 Oct 13:32:39 13:35:07 15° 269° (W) 13:37:38 437.675
nSIGHT-1 23 Oct 13:34:04 13:36:55 28° 11° (N) 13:39:44 .
BEESAT 3 23 Oct 13:36:27 13:39:26 20° 321° (NW) 13:42:27 437.485
SPROUT 23 Oct 13:49:34 13:53:54 87° 284° (WNW) 13:58:10 437.525
ESTCUBE 1 23 Oct 13:50:12 13:53:54 26° 294° (WNW) 13:57:35 437.505/2401.250
BUGSAT 1 23 Oct 13:53:58 13:57:52 37° 263° (W) 14:01:50 437.445
Oscar 19 23 Oct 13:57:23 14:02:32 77° 257° (WSW) 14:07:43 437.125/150
50 SAT 23 Oct 14:01:01 14:03:34 21° 95° (E) 14:06:08 437.505
AO-7 23 Oct 14:06:42 14:13:38 31° 54° (NE) 14:20:35 .
ISS 23 Oct 14:15:33 14:18:38 37° 18° (NNE) 14:21:43 437.550
DX 1 23 Oct 14:19:54 14:23:52 32° 97° (E) 14:27:48 434.975-435.025
M-CUBED/EXP-1 PRIME 23 Oct 14:25:16 14:28:04 25° 258° (WSW) 14:30:51 437.505
UKube-1 23 Oct 14:36:47 14:40:39 31° 97° (E) 14:44:29 .
ITAMSAT 1 23 Oct 14:39:06 14:42:52 21° 60° (ENE) 14:46:40 435.822/435.867
SO-50 23 Oct 14:53:20 14:57:55 62° 51° (NE) 15:02:32 436.795
Gurwin Techsat 1B 23 Oct 14:56:40 15:01:27 34° 264° (W) 15:06:18 435.225
VELOX 1 23 Oct 15:01:05 15:04:47 26° 294° (WNW) 15:08:28 145.980
BEESAT 2 23 Oct 15:07:27 15:08:51 11° 329° (NNW) 15:10:17 435.950
AO-85 23 Oct 15:08:53 15:11:09 15° 327° (NNW) 15:13:28 145.980
nSIGHT-1 23 Oct 15:10:16 15:13:29 90° 37° (NE) 15:16:41 .
SPROUT 23 Oct 15:28:24 15:29:03 10° 302° (WNW) 15:29:42 437.525
ITUPSAT 1 23 Oct 15:28:48 15:31:43 16° 90° (E) 15:34:37 437.325
50 SAT 23 Oct 15:33:09 15:35:48 22° 292° (WNW) 15:38:27 437.505
PCSat 23 Oct 15:38:32 15:42:46 22° 40° (NE) 15:46:58 145.827
BEESAT 23 Oct 15:41:22 15:45:02 21° 93° (E) 15:48:40 436.000
ISS 23 Oct 15:52:01 15:55:11 46° 216° (SW) 15:58:20 437.550
DX 1 23 Oct 15:56:15 15:59:56 27° 294° (WNW) 16:03:35 434.975-435.025
AO-7 23 Oct 15:57:31 16:05:47 71° 254° (WSW) 16:14:06 .
MOZHAYETS 4 23 Oct 16:02:52 16:07:11 39° 98° (E) 16:11:27
UKube-1 23 Oct 16:12:55 16:16:34 27° 294° (WNW) 16:20:13 .
ITAMSAT 1 23 Oct 16:16:45 16:21:53 60° 259° (WSW) 16:27:04 435.822/435.867
CUBESAT XI-V 23 Oct 16:24:21 16:27:08 16° 90° (E) 16:29:56 437.345
SO-50 23 Oct 16:34:48 16:37:57 18° 249° (WSW) 16:41:06 436.795
nSIGHT-1 23 Oct 16:47:40 16:49:19 13° 227° (SW) 16:50:58 .
ITUPSAT 1 23 Oct 17:05:13 17:09:58 63° 288° (WNW) 17:14:40 437.325
KKS-1 23 Oct 17:06:40 17:08:09 11° 89° (E) 17:09:36 437.445
XW-2F 23 Oct 17:08:27 17:09:34 11° 62° (ENE) 17:10:39 145.980 - 146.000
CUTE-I 23 Oct 17:13:11 17:16:51 19° 59° (ENE) 17:20:34 437.470
DOVE 4 23 Oct 17:16:26 17:20:38 66° 74° (ENE) 17:25:04 437.250
BEESAT 23 Oct 17:18:27 17:23:01 46° 290° (WNW) 17:27:33 436.000
LilacSat-2 23 Oct 17:19:42 17:22:13 17° 65° (ENE) 17:24:45 437.200
PCSat 23 Oct 17:21:20 17:26:46 77° 241° (WSW) 17:32:10 145.827
XW-2D 23 Oct 17:22:09 17:24:41 17° 65° (ENE) 17:27:12 145.860 - 145.880
